Location: Hurecourt
(47.9030°N, 6.0653°E)
Time: 04:16:39
(UTC+00:00)

Cosmos 540 Rocket - Pass Details

Date: 14 July 2020
Orbit: 740 x 753 km, 74.1° (Epoch: 06 August)

Event Time Altitude Azimuth Distance (km) Brightness Sun altitude
Rises 02:49:52 0° 338° (NNW) 3,199 7.1 -8.7°
Reaches altitude 10° 02:52:15 10° 341° (NNW) 2,273 6.3 -8.4°
Maximum altitude 02:57:24 70° 66° (ENE) 797 3.8 -7.8°
Drops below altitude 10° 03:02:31 10° 150° (SSE) 2,266 5.8 -7.2°
Sets 03:04:53 0° 153° (SSE) 3,188 6.5 -6.9°
